Flag Weather past 2 weeks in Tallahassee, Florida, U.S.A.

Now
46 °F

Passing clouds.


Feels Like: 42 °F
Forecast: 34 / 55 °F
Wind: 8 mph from Northeast

Location: Tallahassee Regional Airport

Current Time: Nov 28, 2014 at 10:52:06 AM

Latest Report: Nov 28, 2014 at 9:53 AM


Visibility: 10 mi

Pressure: 30.41 "Hg

Humidity: 48%

Dew point: 27 °F

Location of TallahasseeLocation

Historic Weather in Tallahassee — Graph

°F

Tallahassee temperature yesterday

Maximum temperature yesterday: 62 °F (at 2:53 PM)
Minimum temperature yesterday: 39 °F (at 12:53 AM)
Average temperature yesterday: 49 °F

Past Weeks' High & Low Weather Summary

 TemperatureHumidityPressure
High76 °F (Nov 16, 1:53 PM)93% (Nov 25, 4:01 AM)30.48 "Hg (Nov 25, 4:01 AM)
Low24 °F (Nov 20, 4:53 AM)17% (Nov 19, 3:53 PM)29.78 "Hg (Nov 23, 2:01 PM)
Average53 °F67%30.16 "Hg
* Reported Nov 13 8:53 AM — Nov 28 8:53 AM, Tallahassee, Weather by CustomWeather, © 2014

Note: Actual official high and low records may vary slightly from our data, if they occured in-between our weather recording intervals... More about our weather records

Advertising

Tallahassee weather history for previous 24 hours

 ConditionsComfort  
Time TempWeatherWind HumidityBarometerVisibility
8:53 AM
Nov 28
43 °FPassing clouds.7 mph56%30.40 "Hg10 mi
7:53 AM39 °FSunny.3 mph67%30.40 "Hg10 mi
6:53 AM36 °FPassing clouds.5 mph75%30.38 "Hg10 mi
5:53 AM36 °FClear.5 mph79%30.37 "Hg10 mi
4:53 AM37 °FClear.5 mph76%30.36 "Hg10 mi
3:53 AM38 °FClear.6 mph76%30.37 "Hg10 mi
2:53 AM40 °FClear.5 mph70%30.37 "Hg10 mi
1:53 AM42 °FClear.5 mph65%30.37 "Hg10 mi
12:53 AM44 °FClear.6 mph60%30.37 "Hg10 mi
11:53 PM
Nov 27
44 °FClear.7 mph63%30.38 "Hg10 mi
10:53 PM44 °FClear.6 mph65%30.38 "Hg10 mi
9:53 PM46 °FClear.6 mph61%30.37 "Hg10 mi
8:53 PM47 °FClear.5 mph59%30.36 "Hg10 mi
7:53 PM49 °FClear.3 mph57%30.34 "Hg10 mi
6:53 PM51 °FClear.6 mph50%30.32 "Hg10 mi
5:53 PM55 °FClear.3 mph40%30.29 "Hg10 mi
4:53 PM59 °FSunny.9 mph33%30.27 "Hg10 mi
3:53 PM61 °FSunny.14 mph30%30.26 "Hg10 mi
2:53 PM62 °FSunny.15 mph29%30.25 "Hg10 mi
1:53 PM61 °FSunny.14 mph31%30.26 "Hg10 mi
12:53 PM61 °FSunny.14 mph31%30.27 "Hg10 mi
11:53 AM60 °FSunny.14 mph32%30.31 "Hg10 mi
10:53 AM58 °FSunny.10 mph39%30.32 "Hg10 mi
Weather by CustomWeather, © 2014

See weather overviewHow to use our weather pages